Sign In / Sign Up
 
 
Falling Leaves Regatta. Leg 1. 17/10 - 23/10



Race Date (UTC) # I place II place III place Track
Race8152 2016-10-23 12:12:39 8 Lupina Mike Leon Racing Team
Race8151 2016-10-23 12:11:44 8 revenge jorda1 Marco
Race8150 2016-10-23 12:10:39 8 SIROCO TEAM Honys pietro
Race8149 2016-10-23 12:09:40 8 Homeless Luca Sorcerer
Race8148 2016-10-23 12:08:44 2 ita33007 difre49
Race8147 2016-10-23 12:07:08 8 Atila МИХА .
Race8146 2016-10-23 12:05:37 8 nicojap карасик POL 77
Race8145 2016-10-23 12:03:30 8 revenge SIROCO TEAM Atsushi
Race8144 2016-10-23 12:03:00 8 Mike Homeless pietro
Race8143 2016-10-23 12:01:32 5 МИХА Steelhead black pearl
Race8142 2016-10-23 11:59:31 8 Lupina ventomareiro .
Race8141 2016-10-23 11:58:25 8 revenge SIROCO TEAM bardamu
Race8140 2016-10-23 11:57:04 4 Pacaypalla strato Cadu
Race8139 2016-10-23 11:55:54 8 coldwater Homeless Mike
Race8138 2016-10-23 11:54:48 8 MIKE Erotica naza.rokoko
Race8137 2016-10-23 11:53:46 8 Lupina Pol114 penkalet
Race8136 2016-10-23 11:52:19 8 AVISO CYC Claval benalmadenacosta
Race8135 2016-10-23 11:50:52 8 Cadu revenge POL 77
Race8134 2016-10-23 11:50:13 8 Homeless coldwater strato
Race8133 2016-10-23 11:49:14 2 MIKE benalmadenacosta
Race8132 2016-10-23 11:47:38 8 55930 ita58 Зюзя
Race8131 2016-10-23 11:46:57 8 Kokrocz artemide naza.rokoko
Race8130 2016-10-23 11:45:41 8 Pol114 Atsushi Moses
Race8129 2016-10-23 11:45:07 8 revenge Cadu Mike
Race8128 2016-10-23 11:44:03 3 Homeless ciao strato
Race8127 2016-10-23 11:42:10 8 Rider56 Sytten Mateo
Race8126 2016-10-23 11:41:10 8 Тучка Pacaypalla Caronte
Race8125 2016-10-23 11:40:27 8 penkalet Зюзя JSCano500
Race8124 2016-10-23 11:38:58 8 55930 przybytek Kokrocz
Race8123 2016-10-23 11:38:20 8 Zara anti-fascist Cadu revenge
Race8122 2016-10-23 11:36:52 8 ITA 24 Rider56 strato
Race8121 2016-10-23 11:35:41 8 pietro TENAX Alec
Race8120 2016-10-23 11:33:12 8 Pacaypalla Тучка Caronte
Race8119 2016-10-23 11:31:35 8 revenge Mateo searocker
Race8118 2016-10-23 11:30:48 4 Omitsu ITA 24 Shergan SRDN
Race8117 2016-10-23 11:29:22 8 Alec pietro Homeless
Race8116 2016-10-23 11:28:03 8 kate koll Mike penkalet
Race8115 2016-10-23 11:26:16 8 Тучка KOTA Philou
Race8114 2016-10-23 11:24:26 7 Lord of the sea searocker genkai
Race8113 2016-10-23 11:23:03 8 Omitsu RAYO Alec
Race8112 2016-10-23 11:22:19 8 penkalet pietro kate koll
Race8111 2016-10-23 11:21:12 2 black pig ITA9090
Race8110 2016-10-23 11:20:01 8 lieselotte Philou KOTA
Race8109 2016-10-23 11:18:59 8 Lintel Зюзя equinox
Race8108 2016-10-23 11:17:38 8 Stugots MIKE
Race8107 2016-10-23 11:16:30 8 карасик Alec Shergan SRDN
Race8106 2016-10-23 11:15:15 8 Mak kate koll Caronte
Race8105 2016-10-23 11:13:38 8 Philou BlowByU STAR 7926
Race8104 2016-10-23 11:12:29 8 FRA 201825 Тучка KOTA
Race8103 2016-10-23 11:11:49 8 Lintel Stugots star6546
Race8102 2016-10-23 11:10:42 4 roei laser Equanimity katana2
Race8101 2016-10-23 11:08:19 8 Caronte cassiopea Alec
Race8100 2016-10-23 11:07:11 8 REAL 1047 BlowByU uncletony
Race8099 2016-10-23 11:06:20 8 Honys juveMERDA ALICE
Race8098 2016-10-23 11:05:35 8 Lintel star6546 orion
Race8097 2016-10-23 11:03:49 8 FRA 201825 piro lita HC16rs
Race8096 2016-10-23 11:01:45 8 Stugots 3v CATTivik Mak
Race8095 2016-10-23 11:00:57 2 Mike KIKO1
Race8094 2016-10-23 10:59:14 5 Homeless Кирилл juveMERDA
Race8093 2016-10-23 10:57:47 8 ITA 24 cassiopea MED
Race8092 2016-10-23 10:56:46 8 FRA 201825 jorda1 Marakesh express.
Race8091 2016-10-23 10:55:49 3 Mateo Cialtroskj Lfo
Race8090 2016-10-23 10:54:55 8 KOTA Giorgio Ramack
Race8089 2016-10-23 10:53:20 8 Esense berg piro lita
Race8088 2016-10-23 10:52:25 8 MIKE Homeless Ja
Race8087 2016-10-23 10:51:06 8 карасик ITA 24 Betis KK
Race8086 2016-10-23 10:50:02 8 Тучка Pol114 FRA 201825
Race8085 2016-10-23 10:49:09 2 Leo Omitsu
Race8084 2016-10-23 10:48:30 8 bb1 MED Giorgio
Race8083 2016-10-23 10:47:30 8 berg Esense Pitufo
Race8082 2016-10-23 10:46:10 4 come6coglione piro lita juveMERDA
Race8081 2016-10-23 10:45:17 8 MIKE . Homeless
Race8080 2016-10-23 10:44:03 8 Alec Jumbonecrush карасик
Race8079 2016-10-23 10:43:06 8 Soling Pol114
Race8078 2016-10-23 10:41:58 8 Altair Mike Isabelle
Race8077 2016-10-23 10:41:09 8 Frane PAN.FILO ITA-85-MON
Race8076 2016-10-23 10:39:54 8 Lintel piro lita sissa21
Race8075 2016-10-23 10:39:18 8 FRA 201825 Omitsu kuddukunnu
Race8074 2016-10-23 10:37:53 8 Alec Homeless MIKE
Race8073 2016-10-23 10:36:16 8 карасик van 'n oorwinning plamolon
Race8072 2016-10-23 10:35:22 8 REAL 1047 Mike
Race8071 2016-10-23 10:34:05 8 Altair barracuda Shergan SRDN
Race8070 2016-10-23 10:32:59 8 . Y.C. Tempio Pausania max53
Race8069 2016-10-23 10:31:56 8 uncletony Isabelle Homeless
Race8068 2016-10-23 10:30:58 8 Lupina juveMERDA Giorgio
Race8067 2016-10-23 10:29:54 8 MIKE Jumbonecrush naza.rokoko
Race8066 2016-10-23 10:29:17 8 Lord of the sea Cialtroskj
Race8065 2016-10-23 10:27:28 8 plamolon AAAKK Waterjoe
Race8064 2016-10-23 10:26:36 8 . Y.C. Tempio Pausania Sorcerer
Race8063 2016-10-23 10:24:56 8 FRA 201825 come6coglione Mike
Race8062 2016-10-23 10:24:31 8 s'keep cool REALSHIT Lupina
Race8061 2016-10-23 10:23:49 8 juveMERDA EIGER naza.rokoko
Race8060 2016-10-23 10:23:17 8 MIKE big red REAL
Race8059 2016-10-23 10:21:31 8 карасик Altair DOK-dbk
Race8058 2016-10-23 10:20:54 8 Waterjoe Mateo Moses
Race8057 2016-10-23 10:19:56 8 RCLaser27 souvenirs sales kate koll
Race8056 2016-10-23 10:18:41 8 come6coglione ichimokusan Trouble
Race8055 2016-10-23 10:17:30 8 Ocell REALSHIT Mike
Race8054 2016-10-23 10:16:08 8 negrob mr.cello juveMERDA
Race8053 2016-10-23 10:15:14 8 Malmo FRA 201825 DOK-dbk